Regional Weather Roundup
Issued by NWS

Home | Current Version | Previous Version | Text Only | Print | Product List | Glossary On
Versions: 1 2 3 4 5 6 7 8 9 10 11 12 13 14 15 16 17 18 19 20 21 22 23 24 25 26 27 28 29 30 31 32 33 34 35 36 37 38 39 40 41 42 43 44 45 46 47 48 49 50
000
ASUS44 KLIX 290211
RWRLA
LOUISIANA WEATHER ROUNDUP
NATIONAL WEATHER SERVICE NEW ORLEANS LA
900 PM CDT THU MAY 28 2015

NOTE: "FAIR" INDICATES FEW OR NO CLOUDS BELOW 12,000 FEET WITH NO
      SIGNIFICANT WEATHER AND/OR OBSTRUCTIONS TO VISIBILITY.
      SKY/WX - SKY CONDITION AND SIGNIFICANT WEATHER.
      TMP - AIR TEMPERATURE.    DP   - DEWPOINT TEMPERATURE.
      RH  - RELATIVE HUMIDITY.  PRES - PRESSURE.
      HX  - HEAT INDEX.         WCI  - WIND CHILL INDEX.

*  THESE STATIONS ARE NOT NWS OR FAA STATIONS AND ARE NOT UNDER
   NWS QUALITY CONTROL.

LAZ040-048-061>063-065-066-069-290300-
SOUTHEAST LOUISIANA

CITY           SKY/WX    TMP DP  RH WIND       PRES   REMARKS
N.O. AUDUBON     N/A     81  76  84 MISG        N/A
N.O. INTL ARPT MOCLDY    81  72  74 SE8       30.06R
N.O. LAKEFRONT PTCLDY    82  73  74 SE10      30.07R
SLIDELL        PTCLDY    79  74  84 S8        30.06R
BATON ROUGE    MOCLDY    80  72  76 CALM      30.04R
BOOTHVILLE     CLEAR     76  72  87 E3        30.09R
BELLE CHASSE   MOCLDY    78  72  81 SE7       30.06R
BOGALUSA*        N/A     79  70  73 SE6       30.08S
GALLIANO*      PTCLDY    77  73  87 CALM      30.07R
NEW ROADS*     FAIR      77  72  83 E6        30.03S
GONZALES*      FAIR      82  73  74 CALM      30.04R
HAMMOND*       CLEAR     79  68  69 E3        30.08R
HOUMA*         MOCLDY    78  73  86 SE5       30.05R
PORT FOURCHON* CLEAR     81  72  74 SE8       30.07R

$$

LAZ041-044-053-054-290300-
SOUTHWEST LOUISIANA

CITY           SKY/WX    TMP DP  RH WIND       PRES   REMARKS
LAKE CHARLES   PTCLDY    78  72  81 S6        30.00S
LAFAYETTE      PTCLDY    81  73  76 S3        30.02S
PATTERSON      CLEAR     77  72  83 SW3       30.06R
SALT POINT       N/A     79  74  84 CALM      30.03R
NEW IBERIA     PTCLDY    80  76  87 S5        30.03S
CHENAULT AIRPK CLEAR     77  73  88 SE7       30.01R

$$

LAZ027-028-290300-
CENTRAL LOUISIANA

CITY           SKY/WX    TMP DP  RH WIND       PRES   REMARKS
FORT POLK      MOCLDY    76  69  79 NE8       30.00S
ALEXANDRIA INT CLOUDY    78  68  71 E7        29.99F
ALEXANDRIA     CLOUDY    76  67  73 E5        30.01F

$$

LAZ001-002-290300-
NORTHWEST LOUISIANA

CITY           SKY/WX    TMP DP  RH WIND       PRES   REMARKS
SHREVEPORT     PTCLDY    74  68  81 E8        29.99F
BARKSDALE AFB  MOCLDY    74  70  87 SE7       29.99F
DTN SHREVEPORT PTCLDY    75  69  81 SE8       29.99F

$$

LAZ014-016-290300-
NORTHEAST LOUISIANA

CITY           SKY/WX    TMP DP  RH WIND       PRES   REMARKS
MONROE         CLOUDY    75  72  90 NE3       30.04S
TALLULAH       PTCLDY    75  71  87 N3        30.05S

$$



USA.gov is the U.S. government's official web portal to all federal, state and local government web resources and services.